Brandon, Manitoba

8:43 AM CDT on July 21, 2017 (GMT -0500)
Brandon

Weather History for CYBR - September, 2013

Change the Weather History Date:

Saturday, September 28, 2013

  Actual Average Record
Temperature  
Mean Temperature 54 °F -  
Max Temperature 63 °F 54 °F 80 °F (2001)
Min Temperature 44 °F 30 °F 19 °F (2002)
Degree Days  
Heating Degree Days 12    
Growing Degree Days 4 (Base 50)    
Moisture  
Dew Point 46 °F    
Average Humidity 85    
Maximum Humidity 100    
Minimum Humidity 48    
Precipitation  
Precipitation 0.02 in 0.03 in - ()
Sea Level Pressure  
Sea Level Pressure 29.73 in    
Wind  
Wind Speed 4 mph ()    
Max Wind Speed 16 mph    
Max Gust Speed 18 mph    
Visibility 13.7 miles    
Events Rain    
Averages and records for this station are not official NWS values.
T = Trace of Precipitation, MM = Missing Value Source: Averaged Metar Reports

Daily Weather History Graph

Daily Weather History Graph

Search for Another Location

Airport or City:

Trip Planner

Search our weather history database for the weather conditions in past years. The results will help you decide how hot, cold, wet, or windy it might be!

Date:

Astronomy

Sep. 28, 2013 Rise Set
Actual Time 7:35 AM CDT 7:24 PM CDT
Civil Twilight 7:03 AM CDT 7:56 PM CDT
Nautical Twilight 6:25 AM CDT 8:33 PM CDT
Astronomical Twilight 5:47 AM CDT 9:12 PM CDT
Moon 12:54 AM CDT (9/28) 4:11 PM CDT (9/28)
Length of Visible Light 12h 52m
Length of Day
11h 48m
Waning Crescent, 36% of the Moon is Illuminated
Sep 28
Waning Crescent
Oct 4
New
Oct 11
First Quarter
Oct 18
Full
Oct 26
Last Quarter

Hourly Weather History & Observations

Time (CDT) Temp. Windchill Dew Point Humidity Pressure Visibility Wind Dir Wind Speed Gust Speed Precip Events Conditions
12:00 AM 48.2 °F - 48.2 °F 100% 29.83 in 15.0 mi WSW 5.8 mph - N/A Rain Light Rain
1:00 AM 48 °F - 48 °F 98% 29.82 in 15 mi West 3.5 mph - - Rain Light Rain
1:00 AM 48.2 °F - 48.2 °F 100% 29.82 in 15.0 mi West 3.5 mph - N/A Rain Light Rain
2:00 AM 48.2 °F - 48.2 °F 100% 29.82 in 15.0 mi WSW 2.3 mph - N/A Rain Light Rain
3:00 AM 48.2 °F - 48.2 °F 100% 29.80 in 15.0 mi Variable 2.3 mph - N/A Rain Light Rain
3:33 AM 48.2 °F - 46.4 °F 93% 29.79 in 15.0 mi Variable 2.3 mph - N/A   Overcast
4:00 AM 48.2 °F - 48.2 °F 100% 29.78 in 15.0 mi WSW 2.3 mph - N/A   Overcast
5:00 AM 48.2 °F - 48.2 °F 100% 29.78 in 15.0 mi West 2.3 mph - N/A   Overcast
6:00 AM 48.2 °F - 48.2 °F 100% 29.77 in 15.0 mi WNW 3.5 mph - N/A   Overcast
7:00 AM 47 °F - 47 °F 100% 29.77 in 15 mi Calm Calm - -   Partly Cloudy
7:00 AM 46.4 °F - 46.4 °F 100% 29.77 in 15.0 mi Calm Calm - N/A   Overcast
8:00 AM 46.4 °F - 46.4 °F 100% 29.75 in 15.0 mi ENE 2.3 mph - N/A   Overcast
9:00 AM 48.2 °F - 48.2 °F 100% 29.74 in 15.0 mi WSW 2.3 mph - N/A   Overcast
9:11 AM 48.2 °F - 48.2 °F 100% 29.75 in 6.0 mi WSW 6.9 mph - N/A   Overcast
9:27 AM 48.2 °F - 48.2 °F 100% 29.74 in 1.0 mi West 5.8 mph - N/A   Overcast
9:48 AM 48.2 °F - 48.2 °F 100% 29.73 in 5.0 mi West 6.9 mph - N/A   Overcast
10:00 AM 48.2 °F - 48.2 °F 100% 29.73 in 5.0 mi WNW 5.8 mph - N/A   Overcast
11:00 AM 50.0 °F - 48.2 °F 94% 29.72 in 15.0 mi WNW 2.3 mph - N/A   Mostly Cloudy
12:00 PM 51.8 °F - 48.2 °F 88% 29.70 in 15.0 mi WSW 4.6 mph - N/A   Mostly Cloudy
1:00 PM 54 °F - 48 °F 74% 29.70 in 15 mi WSW 5.8 mph - -   Scattered Clouds
1:00 PM 53.6 °F - 48.2 °F 82% 29.70 in 15.0 mi WSW 5.8 mph - N/A   Mostly Cloudy
2:00 PM 57.2 °F - 46.4 °F 67% 29.68 in 15.0 mi SW 4.6 mph - N/A   Mostly Cloudy
3:00 PM 59.0 °F - 44.6 °F 59% 29.66 in 15.0 mi SSW 8.1 mph - N/A   Mostly Cloudy
4:00 PM 59.0 °F - 42.8 °F 55% 29.66 in 15.0 mi SW 10.4 mph 18.4 mph N/A   Mostly Cloudy
5:00 PM 62.6 °F - 42.8 °F 48% 29.65 in 15.0 mi WSW 16.1 mph - N/A   Scattered Clouds
6:00 PM 62.6 °F - 42.8 °F 48% 29.65 in 15.0 mi West 6.9 mph - N/A   Scattered Clouds
7:00 PM 59 °F - 46 °F 51% 29.66 in 15 mi WSW 4.6 mph - -   Partly Cloudy
7:00 PM 59.0 °F - 46.4 °F 63% 29.66 in 15.0 mi WSW 4.6 mph - N/A   Scattered Clouds
8:00 PM 51.8 °F - 39.2 °F 62% 29.68 in 15.0 mi WSW 9.2 mph - N/A   Partly Cloudy
9:00 PM 48.2 °F - 41.0 °F 76% 29.69 in 15.0 mi WSW 6.9 mph - N/A   Partly Cloudy
10:00 PM 44.6 °F 40.2 °F 39.2 °F 81% 29.70 in 15.0 mi SW 8.1 mph - N/A   Clear
11:00 PM 44.6 °F 41.4 °F 39.2 °F 81% 29.70 in 15.0 mi WSW 5.8 mph - N/A   Clear